TimePDT,TemperatureF,Dew PointF,Humidity,Sea Level PressureIn,VisibilityMPH,Wind Direction,Wind SpeedMPH,Gust SpeedMPH,PrecipitationIn,Events,Conditions,WindDirDegrees,DateUTC
12:53 AM,44.1,39.0,82,30.36,5.0,Calm,Calm,-,N/A,,Haze,0,2013-10-14 07:53:00
1:53 AM,43.0,39.0,86,30.37,2.0,Calm,Calm,-,N/A,,Clear,0,2013-10-14 08:53:00
2:04 AM,42.8,39.2,87,30.36,5.0,Calm,Calm,-,N/A,,Clear,0,2013-10-14 09:04:00
2:36 AM,41.0,37.4,87,30.37,2.0,Calm,Calm,-,N/A,,Clear,0,2013-10-14 09:36:00
2:51 AM,39.2,35.6,87,30.37,4.0,Calm,Calm,-,N/A,,Clear,0,2013-10-14 09:51:00
2:53 AM,41.0,37.0,86,30.37,4.0,Calm,Calm,-,N/A,,Clear,0,2013-10-14 09:53:00
3:19 AM,41.0,37.4,87,30.37,2.5,Calm,Calm,-,N/A,,Clear,0,2013-10-14 10:19:00
3:37 AM,41.0,37.4,87,30.36,6.0,East,5.8,-,N/A,,Clear,80,2013-10-14 10:37:00
3:53 AM,42.1,37.9,85,30.37,6.0,Calm,Calm,-,N/A,,Clear,0,2013-10-14 10:53:00
4:53 AM,42.1,37.0,82,30.37,6.0,East,4.6,-,N/A,,Haze,80,2013-10-14 11:53:00
5:53 AM,39.9,36.0,86,30.38,6.0,Calm,Calm,-,N/A,,Clear,0,2013-10-14 12:53:00
6:53 AM,37.9,33.1,83,30.40,6.0,Calm,Calm,-,N/A,,Haze,0,2013-10-14 13:53:00
7:50 AM,37.4,33.8,87,30.39,2.5,Calm,Calm,-,N/A,,Clear,0,2013-10-14 14:50:00
7:53 AM,37.9,34.0,86,30.40,3.0,Calm,Calm,-,N/A,,Clear,0,2013-10-14 14:53:00
8:00 AM,37.4,35.6,93,30.40,2.5,Calm,Calm,-,N/A,,Clear,0,2013-10-14 15:00:00
8:10 AM,39.2,35.6,87,30.40,4.0,East,3.5,-,N/A,,Clear,80,2013-10-14 15:10:00
8:53 AM,45.0,41.0,86,30.41,5.0,East,3.5,-,N/A,,Clear,100,2013-10-14 15:53:00
9:53 AM,50.0,43.0,77,30.41,5.0,East,5.8,-,N/A,,Haze,90,2013-10-14 16:53:00
10:53 AM,55.0,45.0,69,30.41,6.0,Calm,Calm,-,N/A,,Haze,0,2013-10-14 17:53:00
11:53 AM,59.0,46.9,64,30.41,6.0,Calm,Calm,-,N/A,,Haze,0,2013-10-14 18:53:00
12:53 PM,62.1,48.0,60,30.41,6.0,Calm,Calm,-,N/A,,Haze,0,2013-10-14 19:53:00
1:53 PM,62.1,48.9,62,30.39,6.0,SSW,3.5,-,N/A,,Haze,200,2013-10-14 20:53:00
2:53 PM,60.1,48.9,67,30.39,6.0,WSW,6.9,-,N/A,,Haze,250,2013-10-14 21:53:00
3:53 PM,60.1,48.9,67,30.38,5.0,WSW,5.8,-,N/A,,Haze,240,2013-10-14 22:53:00
4:53 PM,60.1,48.0,64,30.37,6.0,WSW,5.8,-,N/A,,Haze,250,2013-10-14 23:53:00
5:53 PM,55.9,46.9,72,30.38,5.0,WNW,4.6,-,N/A,,Haze,290,2013-10-15 00:53:00
6:53 PM,53.1,45.0,74,30.38,6.0,West,3.5,-,N/A,,Haze,280,2013-10-15 01:53:00
7:53 PM,48.9,44.1,83,30.38,5.0,Calm,Calm,-,N/A,,Haze,0,2013-10-15 02:53:00
8:53 PM,46.0,42.1,86,30.38,5.0,Calm,Calm,-,N/A,,Clear,0,2013-10-15 03:53:00
9:53 PM,46.9,43.0,86,30.38,5.0,Calm,Calm,-,N/A,,Clear,0,2013-10-15 04:53:00
10:53 PM,45.0,41.0,86,30.38,4.0,Calm,Calm,-,N/A,,Clear,0,2013-10-15 05:53:00
11:53 PM,42.1,39.0,89,30.38,5.0,Calm,Calm,-,N/A,,Clear,0,2013-10-15 06:53:00